CGAS EGPH-EGPD

Flight info

Callsign CGAS
Flight time 0h 37m
Altitude 19000
Route GRICE P600 ADN
Aircraft PC12/L-SDFGRWY/S

Departure

Time 2026-04-22 19:07
Airport Edinburgh Airport (EGPH)

Arrival

Time 2026-04-22 19:44
Airport Aberdeen International Airport (EGPD)
Time Latitude Longitude Altitude Speed Heading
2026-04-22 18:37 55.94644 -3.35286 107 ft 0 kts 299°
2026-04-22 18:59 55.94651 -3.35290 107 ft 5 kts 359°
2026-04-22 18:59 55.94700 -3.35251 106 ft 7 kts 30°
2026-04-22 18:59 55.94759 -3.35292 106 ft 13 kts 297°
2026-04-22 19:00 55.94775 -3.35342 106 ft 6 kts 299°
2026-04-22 19:00 55.94817 -3.35480 105 ft 19 kts 298°
2026-04-22 19:00 55.94871 -3.35658 104 ft 16 kts 297°
2026-04-22 19:00 55.94927 -3.35834 104 ft 15 kts 307°
2026-04-22 19:01 55.94988 -3.35854 103 ft 9 kts 22°
2026-04-22 19:01 55.95028 -3.35817 102 ft 9 kts 28°
2026-04-22 19:01 55.95088 -3.35790 103 ft 11 kts 335°
2026-04-22 19:01 55.95140 -3.35917 102 ft 17 kts 323°
2026-04-22 19:02 55.95186 -3.36124 99 ft 17 kts 237°
2026-04-22 19:02 55.95108 -3.36357 102 ft 27 kts 238°
2026-04-22 19:02 55.94998 -3.36681 103 ft 34 kts 237°
2026-04-22 19:02 55.94875 -3.37043 101 ft 28 kts 238°
2026-04-22 19:03 55.94786 -3.37306 103 ft 27 kts 239°
2026-04-22 19:03 55.94684 -3.37608 109 ft 33 kts 239°
2026-04-22 19:03 55.94593 -3.37875 109 ft 14 kts 241°
2026-04-22 19:03 55.94595 -3.37949 109 ft 0 kts 316°
2026-04-22 19:04 55.94601 -3.37958 109 ft 6 kts 323°
2026-04-22 19:04 55.94671 -3.38031 110 ft 17 kts 333°
2026-04-22 19:04 55.94734 -3.38032 112 ft 5 kts 58°
2026-04-22 19:05 55.94738 -3.38020 112 ft 0 kts 56°
2026-04-22 19:05 55.94747 -3.37995 113 ft 12 kts 58°
2026-04-22 19:06 55.94899 -3.37544 107 ft 72 kts 59°
2026-04-22 19:06 55.95222 -3.36586 220 ft 105 kts 58°
2026-04-22 19:06 55.95658 -3.35313 471 ft 139 kts 58°
2026-04-22 19:07 55.96931 -3.32872 2168 ft 118 kts 47°
2026-04-22 19:07 55.97537 -3.31875 2849 ft 122 kts 47°
2026-04-22 19:07 55.98186 -3.30819 3381 ft 134 kts 47°
2026-04-22 19:07 55.98895 -3.29663 3968 ft 140 kts 47°
2026-04-22 19:08 55.99656 -3.28533 4619 ft 145 kts 40°
2026-04-22 19:08 56.00564 -3.27688 5292 ft 150 kts 27°
2026-04-22 19:08 56.01597 -3.27189 5904 ft 157 kts 13°
2026-04-22 19:08 56.02713 -3.27122 6543 ft 164 kts 358°
2026-04-22 19:09 56.03824 -3.27533 7187 ft 167 kts 342°
2026-04-22 19:09 56.04877 -3.28431 7810 ft 170 kts 326°
2026-04-22 19:09 56.05509 -3.29297 8261 ft 169 kts 316°
2026-04-22 19:09 56.06472 -3.31463 9150 ft 168 kts 295°
2026-04-22 19:10 56.06911 -3.33393 9835 ft 167 kts 280°
2026-04-22 19:10 56.07209 -3.35413 10493 ft 169 kts 281°
2026-04-22 19:10 56.07524 -3.37435 11125 ft 169 kts 281°
2026-04-22 19:10 56.07833 -3.39472 11758 ft 170 kts 281°
2026-04-22 19:11 56.08138 -3.41497 12394 ft 171 kts 281°
2026-04-22 19:11 56.08454 -3.43607 13030 ft 174 kts 281°
2026-04-22 19:11 56.08765 -3.45674 13678 ft 175 kts 281°
2026-04-22 19:11 56.09082 -3.47786 14344 ft 176 kts 281°
2026-04-22 19:12 56.09401 -3.49915 14920 ft 177 kts 281°
2026-04-22 19:12 56.09722 -3.52056 15494 ft 178 kts 281°
2026-04-22 19:12 56.10063 -3.54201 16070 ft 180 kts 285°
2026-04-22 19:12 56.10533 -3.56295 16668 ft 182 kts 291°
2026-04-22 19:13 56.11130 -3.58311 17263 ft 185 kts 297°
2026-04-22 19:13 56.11856 -3.60228 17851 ft 188 kts 302°
2026-04-22 19:13 56.12712 -3.62027 18416 ft 192 kts 308°
2026-04-22 19:13 56.13696 -3.63673 18990 ft 194 kts 316°
2026-04-22 19:14 56.14781 -3.65118 19414 ft 203 kts 322°
2026-04-22 19:14 56.16078 -3.66452 19519 ft 229 kts 330°
2026-04-22 19:14 56.17641 -3.67577 19539 ft 255 kts 340°
2026-04-22 19:14 56.19454 -3.68043 19528 ft 275 kts
2026-04-22 19:15 56.20673 -3.67335 19529 ft 283 kts 28°
2026-04-22 19:15 56.22878 -3.64600 19539 ft 292 kts 39°
2026-04-22 19:15 56.24493 -3.62330 19530 ft 296 kts 38°
2026-04-22 19:15 56.26176 -3.60154 19538 ft 299 kts 35°
2026-04-22 19:16 56.27887 -3.58017 19540 ft 300 kts 35°
2026-04-22 19:16 56.29595 -3.55828 19539 ft 301 kts 36°
2026-04-22 19:16 56.31267 -3.53651 19540 ft 301 kts 36°
2026-04-22 19:16 56.32972 -3.51447 19541 ft 302 kts 36°
2026-04-22 19:17 56.34679 -3.49252 19535 ft 302 kts 36°
2026-04-22 19:17 56.36387 -3.47048 19539 ft 302 kts 36°
2026-04-22 19:17 56.38120 -3.44906 19539 ft 302 kts 34°
2026-04-22 19:17 56.39844 -3.42755 19533 ft 301 kts 35°
2026-04-22 19:18 56.41559 -3.40579 19534 ft 301 kts 35°
2026-04-22 19:18 56.43278 -3.38433 19534 ft 301 kts 34°
2026-04-22 19:18 56.45005 -3.36291 19530 ft 301 kts 34°
2026-04-22 19:18 56.46706 -3.34169 19532 ft 301 kts 34°
2026-04-22 19:19 56.48427 -3.32013 19529 ft 301 kts 35°
2026-04-22 19:19 56.50147 -3.29858 19533 ft 301 kts 34°
2026-04-22 19:19 56.51869 -3.27701 19530 ft 301 kts 34°
2026-04-22 19:19 56.53585 -3.25548 19536 ft 301 kts 35°
2026-04-22 19:20 56.55311 -3.23380 19535 ft 301 kts 35°
2026-04-22 19:20 56.57031 -3.21217 19538 ft 302 kts 35°
2026-04-22 19:20 56.58756 -3.19046 19538 ft 302 kts 35°
2026-04-22 19:20 56.60457 -3.16901 19537 ft 302 kts 35°
2026-04-22 19:21 56.62182 -3.14725 19537 ft 302 kts 35°
2026-04-22 19:21 56.63908 -3.12545 19540 ft 302 kts 35°
2026-04-22 19:21 56.65633 -3.10363 19540 ft 302 kts 35°
2026-04-22 19:21 56.67355 -3.08183 19540 ft 302 kts 35°
2026-04-22 19:22 56.69080 -3.05997 19541 ft 302 kts 35°
2026-04-22 19:22 56.70810 -3.03811 19478 ft 304 kts 34°
2026-04-22 19:22 56.72580 -3.01600 19146 ft 312 kts 35°
2026-04-22 19:22 56.74381 -2.99349 18737 ft 314 kts 35°
2026-04-22 19:23 56.76169 -2.97101 18291 ft 310 kts 35°
2026-04-22 19:23 56.77878 -2.94947 17885 ft 292 kts 35°
2026-04-22 19:23 56.79486 -2.92917 17505 ft 270 kts 36°
2026-04-22 19:23 56.80981 -2.91028 17152 ft 255 kts 36°
2026-04-22 19:24 56.82427 -2.89199 16827 ft 250 kts 36°
2026-04-22 19:24 56.83852 -2.87396 16392 ft 251 kts 36°
2026-04-22 19:24 56.85266 -2.85602 15758 ft 244 kts 36°
2026-04-22 19:24 56.86658 -2.83838 15310 ft 244 kts 36°
2026-04-22 19:25 56.88050 -2.82072 14957 ft 243 kts 36°
2026-04-22 19:25 56.89422 -2.80329 14635 ft 244 kts 36°
2026-04-22 19:25 56.90813 -2.78560 14301 ft 243 kts 36°
2026-04-22 19:25 56.92203 -2.76796 13951 ft 243 kts 36°
2026-04-22 19:26 56.93594 -2.75030 13634 ft 244 kts 36°
2026-04-22 19:26 56.94990 -2.73253 13307 ft 245 kts 36°
2026-04-22 19:26 56.96386 -2.71476 12984 ft 244 kts 36°
2026-04-22 19:26 56.97766 -2.69713 12665 ft 233 kts 37°
2026-04-22 19:27 56.99047 -2.68077 12355 ft 217 kts 37°
2026-04-22 19:27 57.00269 -2.66514 12074 ft 212 kts 37°
2026-04-22 19:27 57.01472 -2.64973 11808 ft 210 kts 37°
2026-04-22 19:27 57.02670 -2.63438 11535 ft 210 kts 37°
2026-04-22 19:28 57.03866 -2.61905 11259 ft 210 kts 37°
2026-04-22 19:28 57.05059 -2.60375 10990 ft 209 kts 37°
2026-04-22 19:28 57.06232 -2.58868 10722 ft 209 kts 37°
2026-04-22 19:28 57.07421 -2.57339 10451 ft 209 kts 37°
2026-04-22 19:29 57.08593 -2.55833 10156 ft 203 kts 37°
2026-04-22 19:29 57.09747 -2.54348 9883 ft 203 kts 37°
2026-04-22 19:29 57.10908 -2.52853 9615 ft 204 kts 37°
2026-04-22 19:29 57.12066 -2.51359 9346 ft 203 kts 37°
2026-04-22 19:30 57.12832 -2.50372 9166 ft 203 kts 38°
2026-04-22 19:30 57.14376 -2.48378 8807 ft 203 kts 38°
2026-04-22 19:30 57.15530 -2.46887 8544 ft 203 kts 38°
2026-04-22 19:30 57.16684 -2.45395 8274 ft 203 kts 38°
2026-04-22 19:31 57.17836 -2.43904 8008 ft 203 kts 38°
2026-04-22 19:31 57.18989 -2.42411 7739 ft 202 kts 38°
2026-04-22 19:31 57.20138 -2.40922 7470 ft 202 kts 38°
2026-04-22 19:31 57.21287 -2.39431 7204 ft 202 kts 38°
2026-04-22 19:32 57.22422 -2.37958 6936 ft 202 kts 38°
2026-04-22 19:32 57.23570 -2.36464 6641 ft 202 kts 37°
2026-04-22 19:32 57.24713 -2.34981 6365 ft 200 kts 37°
2026-04-22 19:32 57.25849 -2.33504 6108 ft 200 kts 37°
2026-04-22 19:33 57.26987 -2.32022 5833 ft 200 kts 37°
2026-04-22 19:33 57.28121 -2.30543 5567 ft 198 kts 37°
2026-04-22 19:33 57.29177 -2.29169 5314 ft 174 kts 38°
2026-04-22 19:33 57.30114 -2.27949 5095 ft 154 kts 38°
2026-04-22 19:34 57.30958 -2.26920 4880 ft 136 kts 28°
2026-04-22 19:34 57.31828 -2.26530 4711 ft 125 kts
2026-04-22 19:34 57.32670 -2.26314 4547 ft 120 kts 12°
2026-04-22 19:34 57.33488 -2.26095 4401 ft 118 kts 12°
2026-04-22 19:35 57.34292 -2.25883 4256 ft 116 kts 11°
2026-04-22 19:35 57.35088 -2.25674 4106 ft 115 kts 12°
2026-04-22 19:35 57.35612 -2.25537 4008 ft 115 kts 12°
2026-04-22 19:35 57.36650 -2.25663 3788 ft 118 kts 328°
2026-04-22 19:36 57.37103 -2.26905 3645 ft 121 kts 280°
2026-04-22 19:36 57.36903 -2.28390 3491 ft 122 kts 229°
2026-04-22 19:36 57.36218 -2.29114 3358 ft 108 kts 192°
2026-04-22 19:36 57.35536 -2.29527 3206 ft 98 kts 195°
2026-04-22 19:37 57.34899 -2.29707 3036 ft 89 kts 167°
2026-04-22 19:37 57.34306 -2.29667 2935 ft 84 kts 171°
2026-04-22 19:37 57.33699 -2.29589 2826 ft 91 kts 160°
2026-04-22 19:37 57.33092 -2.29209 2711 ft 91 kts 159°
2026-04-22 19:38 57.32517 -2.28834 2579 ft 85 kts 157°
2026-04-22 19:38 57.31969 -2.28457 2498 ft 81 kts 155°
2026-04-22 19:38 57.31438 -2.28074 2501 ft 84 kts 154°
2026-04-22 19:38 57.30854 -2.27653 2430 ft 96 kts 156°
2026-04-22 19:39 57.30243 -2.27211 2283 ft 92 kts 155°
2026-04-22 19:39 57.29666 -2.26792 2149 ft 86 kts 155°
2026-04-22 19:39 57.29299 -2.26519 2061 ft 82 kts 154°
2026-04-22 19:39 57.28959 -2.26263 1985 ft 79 kts 153°
2026-04-22 19:40 57.28228 -2.25706 1851 ft 92 kts 155°
2026-04-22 19:40 57.27636 -2.25279 1716 ft 88 kts 155°
2026-04-22 19:40 57.27087 -2.24875 1586 ft 83 kts 154°
2026-04-22 19:40 57.26540 -2.24462 1478 ft 88 kts 155°
2026-04-22 19:41 57.25963 -2.24032 1359 ft 90 kts 154°
2026-04-22 19:41 57.25397 -2.23621 1226 ft 85 kts 154°
2026-04-22 19:41 57.24859 -2.23221 1100 ft 83 kts 155°
2026-04-22 19:41 57.24312 -2.22812 978 ft 87 kts 155°
2026-04-22 19:42 57.23747 -2.22415 879 ft 88 kts 154°
2026-04-22 19:42 57.23175 -2.21994 732 ft 89 kts 154°
2026-04-22 19:42 57.22608 -2.21556 586 ft 88 kts 154°
2026-04-22 19:42 57.22044 -2.21157 438 ft 88 kts 155°
2026-04-22 19:43 57.20922 -2.20316 225 ft 87 kts 152°
2026-04-22 19:43 57.20406 -2.19929 205 ft 72 kts 157°
2026-04-22 19:43 57.19978 -2.19620 211 ft 62 kts 158°
2026-04-22 19:44 57.19651 -2.19379 211 ft 48 kts 156°
2026-04-22 19:44 57.19426 -2.19285 213 ft 19 kts 236°
2026-04-22 19:44 57.19514 -2.19501 207 ft 29 kts 321°
2026-04-22 19:44 57.19708 -2.19742 215 ft 39 kts 338°
2026-04-22 19:45 57.19922 -2.19955 209 ft 29 kts 304°
2026-04-22 19:45 57.20023 -2.20095 203 ft 0 kts 336°
2026-04-22 19:46 57.20043 -2.20108 207 ft 9 kts 342°
2026-04-22 19:46 57.20148 -2.20184 199 ft 23 kts 340°
2026-04-22 19:46 57.20336 -2.20324 204 ft 34 kts 338°
2026-04-22 19:47 57.20477 -2.20359 202 ft 17 kts 43°
2026-04-22 19:47 57.20610 -2.20416 205 ft 26 kts 338°
2026-04-22 19:47 57.20749 -2.20518 200 ft 0 kts 338°
2026-04-22 19:50 57.20775 -2.20527 200 ft 9 kts 14°